| time (UTC) | temp F | wind direction | speed MPH | gust MPH | rain 1hr in | rain 24hr in | rain mn in | humidity % | barometer mb |
| 20260506105715 | 24 | 153 | 1.0 | 1.0 | 0.00 | 0.00 | 0.00 | 74 | 1018.8 |
| 20260506105212 | 24 | 151 | 2.0 | 2.0 | 0.00 | 0.00 | 0.00 | 74 | 1018.9 |
| 20260506104710 | 23 | 151 | 0.0 | 0.0 | 0.00 | 0.00 | 0.00 | 75 | 1019.0 |
| 20260506104207 | 24 | 151 | 0.0 | 0.0 | 0.00 | 0.00 | 0.00 | 72 | 1019.1 |
| 20260506103704 | 23 | 151 | 1.0 | 1.0 | 0.00 | 0.00 | 0.00 | 73 | 1018.9 |
| 20260506103201 | 23 | 151 | 0.0 | 1.0 | 0.00 | 0.00 | 0.00 | 73 | 1019.2 |
| 20260506102659 | 23 | 151 | 0.0 | 0.0 | 0.00 | 0.00 | 0.00 | 70 | 1019.2 |
| 20260506102157 | 23 | 151 | 2.0 | 2.0 | 0.00 | 0.00 | 0.00 | 69 | 1019.1 |
| 20260506101653 | 24 | 151 | 2.0 | 2.0 | 0.00 | 0.00 | 0.00 | 66 | 1019.1 |
| 20260506101150 | 24 | 151 | 2.0 | 2.0 | 0.00 | 0.00 | 0.00 | 66 | 1019.2 |
| 20260506100648 | 23 | 152 | 1.0 | 2.0 | 0.00 | 0.00 | 0.00 | 67 | 1019.4 |
| 20260506100146 | 23 | 151 | 0.0 | 0.0 | 0.00 | 0.00 | 0.00 | 66 | 1019.4 |
| 20260506095644 | 22 | 151 | 0.0 | 0.0 | 0.00 | 0.00 | 0.00 | 64 | 1019.5 |
| 20260506095140 | 22 | 151 | 0.0 | 0.0 | 0.00 | 0.00 | 0.00 | 65 | 1019.4 |
| 20260506094638 | 22 | 151 | 0.0 | 0.0 | 0.00 | 0.00 | 0.00 | 63 | 1019.4 |
| 20260506094136 | 22 | 151 | 0.0 | 0.0 | 0.00 | 0.00 | 0.00 | 64 | 1019.6 |
| 20260506093634 | 22 | 150 | 4.0 | 5.0 | 0.00 | 0.00 | 0.00 | 63 | 1019.6 |
| 20260506093131 | 22 | 144 | 0.0 | 0.0 | 0.00 | 0.00 | 0.00 | 62 | 1019.7 |
| 20260506092629 | 22 | 144 | 1.0 | 2.0 | 0.00 | 0.00 | 0.00 | 62 | 1019.8 |
| 20260506092125 | 22 | 143 | 2.0 | 2.0 | 0.00 | 0.00 | 0.00 | 62 | 1019.8 |
| 20260506091624 | 22 | 143 | 2.0 | 2.0 | 0.00 | 0.00 | 0.00 | 62 | 1019.9 |
| 20260506091121 | 22 | 143 | 2.0 | 2.0 | 0.00 | 0.00 | 0.00 | 61 | 1019.7 |
| 20260506090619 | 22 | 142 | 2.0 | 2.0 | 0.00 | 0.00 | 0.00 | 64 | 1019.8 |
| 20260506090115 | 22 | 141 | 1.0 | 1.0 | 0.00 | 0.00 | 0.00 | 62 | 1019.7 |
| 20260506085612 | 23 | 138 | 2.0 | 2.0 | 0.00 | 0.00 | 0.00 | 62 | 1019.8 |
| 20260506085108 | 22 | 63 | 1.0 | 1.0 | 0.00 | 0.00 | 0.00 | 62 | 1019.8 |
| 20260506084605 | 22 | 63 | 0.0 | 0.0 | 0.00 | 0.00 | 0.00 | 61 | 1020.0 |
| 20260506084101 | 22 | 63 | 1.0 | 1.0 | 0.00 | 0.00 | 0.00 | 61 | 1019.9 |
| 20260506083559 | 22 | 63 | 0.0 | 0.0 | 0.00 | 0.00 | 0.00 | 61 | 1020.0 |
| 20260506083056 | 23 | 62 | 0.0 | 0.0 | 0.00 | 0.00 | 0.00 | 60 | 1020.1 |
| 20260506082552 | 23 | 62 | 0.0 | 0.0 | 0.00 | 0.00 | 0.00 | 60 | 1020.0 |
| 20260506082048 | 23 | 62 | 0.0 | 0.0 | 0.00 | 0.00 | 0.00 | 60 | 1020.1 |
| 20260506081546 | 23 | 62 | 0.0 | 0.0 | 0.00 | 0.00 | 0.00 | 60 | 1020.2 |
| 20260506081043 | 24 | 62 | 0.0 | 0.0 | 0.00 | 0.00 | 0.00 | 59 | 1020.3 |
| 20260506080541 | 24 | 62 | 0.0 | 0.0 | 0.00 | 0.00 | 0.00 | 59 | 1020.3 |
| 20260506073525 | 26 | 62 | 0.0 | 0.0 | 0.00 | 0.00 | 0.00 | 57 | 1020.6 |
| 20260506073021 | 25 | 62 | 2.0 | 2.0 | 0.00 | 0.00 | 0.00 | 58 | 1020.4 |
| 20260506072519 | 25 | 61 | 0.0 | 0.0 | 0.00 | 0.00 | 0.00 | 58 | 1020.4 |
| 20260506072016 | 25 | 61 | 0.0 | 0.0 | 0.00 | 0.00 | 0.00 | 58 | 1020.6 |
| 20260506071514 | 26 | 61 | 0.0 | 0.0 | 0.00 | 0.00 | 0.00 | 57 | 1020.6 |
| 20260506071011 | 28 | 61 | 0.0 | 0.0 | 0.00 | 0.00 | 0.00 | 55 | 1020.7 |
| 20260506070509 | 29 | 62 | 1.0 | 1.0 | 0.00 | 0.00 | 0.00 | 54 | 1020.9 |
| 20260506062446 | 29 | 62 | 0.0 | 0.0 | 0.00 | 0.00 | 0.00 | 63 | 1020.7 |
| 20260506061942 | 30 | 61 | 0.0 | 0.0 | 0.00 | 0.00 | 0.00 | 69 | 1020.7 |
| 20260506061438 | 30 | 61 | 0.0 | 0.0 | 0.00 | 0.00 | 0.00 | 67 | 1020.7 |
| 20260506060936 | 30 | 61 | 0.0 | 0.0 | 0.00 | 0.00 | 0.00 | 63 | 1020.6 |
| 20260506060435 | 30 | 61 | 0.0 | 0.0 | 0.00 | 0.00 | 0.00 | 62 | 1020.6 |
| 20260506051406 | 32 | 61 | 0.0 | 0.0 | 0.00 | 0.00 | 0.00 | 58 | 1020.7 |
| 20260506050903 | 33 | 61 | 0.0 | 0.0 | 0.00 | 0.00 | 0.00 | 57 | 1020.9 |
| 20260506050401 | 33 | 61 | 0.0 | 0.0 | 0.00 | 0.00 | 0.00 | 57 | 1020.8 |
| 20260506044851 | 34 | 61 | 0.0 | 0.0 | 0.00 | 0.00 | 0.00 | 54 | 1020.6 |
| 20260506044349 | 35 | 50 | 1.0 | 1.0 | 0.00 | 0.00 | 0.00 | 52 | 1020.7 |
| 20260506043846 | 35 | 28 | 5.0 | 5.0 | 0.00 | 0.00 | 0.00 | 52 | 1020.7 |
| 20260506043343 | 34 | 31 | 3.0 | 3.0 | 0.00 | 0.00 | 0.00 | 53 | 1020.8 |
| 20260506042841 | 35 | 32 | 3.0 | 3.0 | 0.00 | 0.00 | 0.00 | 52 | 1020.8 |
| 20260506042340 | 35 | 37 | 3.0 | 3.0 | 0.00 | 0.00 | 0.00 | 50 | 1020.7 |
| 20260506041838 | 36 | 33 | 3.0 | 3.0 | 0.00 | 0.00 | 0.00 | 50 | 1020.6 |
| 20260506041335 | 36 | 42 | 3.0 | 3.0 | 0.00 | 0.00 | 0.00 | 49 | 1020.8 |
| 20260506040832 | 37 | 34 | 2.0 | 2.0 | 0.00 | 0.00 | 0.00 | 49 | 1020.7 |
| 20260506040330 | 37 | 36 | 3.0 | 3.0 | 0.00 | 0.00 | 0.00 | 48 | 1020.9 |
| 20260506035826 | 38 | 28 | 3.0 | 5.0 | 0.00 | 0.00 | 0.00 | 47 | 1020.8 |
| 20260506035323 | 38 | 27 | 5.0 | 6.0 | 0.00 | 0.00 | 0.00 | 46 | 1020.8 |
| 20260506034820 | 38 | 35 | 5.0 | 6.0 | 0.00 | 0.00 | 0.00 | 47 | 1020.6 |
| 20260506034317 | 38 | 33 | 4.0 | 5.0 | 0.00 | 0.00 | 0.00 | 46 | 1020.8 |
| 20260506033814 | 39 | 31 | 4.0 | 6.0 | 0.00 | 0.00 | 0.00 | 46 | 1020.8 |
| 20260506033311 | 39 | 25 | 4.0 | 5.0 | 0.00 | 0.00 | 0.00 | 46 | 1020.9 |
| 20260506032808 | 39 | 17 | 5.0 | 6.0 | 0.00 | 0.00 | 0.00 | 46 | 1020.9 |
| 20260506032306 | 40 | 28 | 5.0 | 6.0 | 0.00 | 0.00 | 0.00 | 44 | 1020.8 |
| 20260506031802 | 40 | 22 | 5.0 | 5.0 | 0.00 | 0.00 | 0.00 | 44 | 1020.7 |
| 20260506031259 | 40 | 20 | 3.0 | 3.0 | 0.00 | 0.00 | 0.00 | 43 | 1020.6 |
| 20260506030757 | 41 | 22 | 4.0 | 5.0 | 0.00 | 0.00 | 0.00 | 42 | 1020.7 |
| 20260506030254 | 41 | 31 | 5.0 | 5.0 | 0.00 | 0.00 | 0.00 | 41 | 1020.7 |
| 20260506025751 | 42 | 22 | 5.0 | 6.0 | 0.00 | 0.00 | 0.00 | 41 | 1020.4 |
| 20260506025247 | 42 | 22 | 4.0 | 6.0 | 0.00 | 0.00 | 0.00 | 40 | 1020.4 |
| 20260506024745 | 43 | 24 | 5.0 | 6.0 | 0.00 | 0.00 | 0.00 | 39 | 1020.4 |
| 20260506024241 | 43 | 29 | 5.0 | 6.0 | 0.00 | 0.00 | 0.00 | 38 | 1020.4 |
| 20260506023737 | 44 | 21 | 5.0 | 6.0 | 0.00 | 0.00 | 0.00 | 37 | 1020.4 |
| 20260506023235 | 45 | 27 | 6.0 | 7.0 | 0.00 | 0.00 | 0.00 | 36 | 1020.2 |
| 20260506022731 | 45 | 28 | 4.0 | 5.0 | 0.00 | 0.00 | 0.00 | 37 | 1020.4 |
| 20260506022229 | 46 | 19 | 5.0 | 6.0 | 0.00 | 0.00 | 0.00 | 36 | 1020.4 |
| 20260506021727 | 46 | 15 | 8.0 | 9.0 | 0.00 | 0.00 | 0.00 | 35 | 1020.2 |
| 20260506021224 | 46 | 30 | 7.0 | 8.0 | 0.00 | 0.00 | 0.00 | 35 | 1020.4 |
| 20260506020720 | 46 | 28 | 6.0 | 8.0 | 0.00 | 0.00 | 0.00 | 33 | 1020.2 |
| 20260506020218 | 47 | 28 | 7.0 | 9.0 | 0.00 | 0.00 | 0.00 | 33 | 1020.2 |
| 20260506015716 | 47 | 36 | 10.0 | 11.0 | 0.00 | 0.00 | 0.00 | 33 | 1020.2 |
| 20260506015213 | 47 | 23 | 5.0 | 7.0 | 0.00 | 0.00 | 0.00 | 32 | 1020.1 |
| 20260506014710 | 48 | 4 | 7.0 | 8.0 | 0.00 | 0.00 | 0.00 | 31 | 1020.1 |
| 20260506014206 | 48 | 13 | 7.0 | 10.0 | 0.00 | 0.00 | 0.00 | 30 | 1020.2 |
| 20260506013704 | 48 | 9 | 9.0 | 11.0 | 0.00 | 0.00 | 0.00 | 31 | 1020.1 |
| 20260506013201 | 49 | 1 | 9.0 | 10.0 | 0.00 | 0.00 | 0.00 | 31 | 1020.2 |
| 20260506012657 | 49 | 9 | 7.0 | 9.0 | 0.00 | 0.00 | 0.00 | 30 | 1020.3 |
| 20260506012154 | 49 | 8 | 10.0 | 13.0 | 0.00 | 0.00 | 0.00 | 30 | 1020.2 |
| 20260506011651 | 49 | 11 | 11.0 | 14.0 | 0.00 | 0.00 | 0.00 | 30 | 1020.1 |
| 20260506011147 | 49 | 40 | 6.0 | 8.0 | 0.00 | 0.00 | 0.00 | 30 | 1020.0 |
| 20260506010646 | 50 | 13 | 8.0 | 9.0 | 0.00 | 0.00 | 0.00 | 29 | 1020.1 |
| 20260506010143 | 50 | 18 | 9.0 | 11.0 | 0.00 | 0.00 | 0.00 | 29 | 1020.0 |
| 20260506005639 | 49 | 21 | 12.0 | 14.0 | 0.00 | 0.00 | 0.00 | 29 | 1020.0 |
| 20260506005136 | 50 | 14 | 7.0 | 7.0 | 0.00 | 0.00 | 0.00 | 30 | 1019.9 |
| 20260506004632 | 50 | 356 | 9.0 | 14.0 | 0.00 | 0.00 | 0.00 | 29 | 1020.2 |
| 20260506004129 | 50 | 16 | 7.0 | 10.0 | 0.00 | 0.00 | 0.00 | 30 | 1020.0 |
| 20260506003620 | 51 | 23 | 7.0 | 9.0 | 0.00 | 0.00 | 0.00 | 29 | 1020.1 |
| 20260506003117 | 51 | 9 | 10.0 | 11.0 | 0.00 | 0.00 | 0.00 | 28 | 1019.9 |
| 20260506002613 | 51 | 9 | 9.0 | 11.0 | 0.00 | 0.00 | 0.00 | 29 | 1020.0 |
| 20260506002109 | 50 | 18 | 12.0 | 14.0 | 0.00 | 0.00 | 0.00 | 29 | 1020.0 |
| 20260506001605 | 51 | 14 | 8.0 | 9.0 | 0.00 | 0.00 | 0.00 | 29 | 1019.9 |
| 20260506001102 | 50 | 28 | 15.0 | 16.0 | 0.00 | 0.00 | 0.00 | 30 | 1020.1 |
| 20260506000600 | 51 | 13 | 11.0 | 15.0 | 0.00 | 0.00 | 0.00 | 28 | 1020.0 |
| 20260506000057 | 52 | 303 | 6.0 | 8.0 | 0.00 | 0.00 | 0.00 | 28 | 1019.9 |
| 20260505235555 | 52 | 6 | 11.0 | 14.0 | 0.00 | 0.00 | 0.00 | 26 | 1020.1 |
| 20260505235052 | 51 | 6 | 5.0 | 6.0 | 0.00 | 0.00 | 0.00 | 28 | 1020.2 |
| 20260505234549 | 51 | 10 | 11.0 | 14.0 | 0.00 | 0.00 | 0.00 | 27 | 1020.1 |
| 20260505234045 | 52 | 13 | 9.0 | 10.0 | 0.00 | 0.00 | 0.00 | 27 | 1020.1 |
| 20260505233543 | 52 | 359 | 8.0 | 9.0 | 0.00 | 0.00 | 0.00 | 27 | 1020.0 |
| 20260505233040 | 51 | 14 | 12.0 | 14.0 | 0.00 | 0.00 | 0.00 | 28 | 1020.0 |
| 20260505232538 | 51 | 15 | 6.0 | 7.0 | 0.00 | 0.00 | 0.00 | 28 | 1019.9 |
| 20260505232035 | 52 | 14 | 11.0 | 16.0 | 0.00 | 0.00 | 0.00 | 28 | 1020.0 |
| 20260505231532 | 53 | 8 | 13.0 | 16.0 | 0.00 | 0.00 | 0.00 | 27 | 1019.8 |
| 20260505231031 | 52 | 313 | 5.0 | 7.0 | 0.00 | 0.00 | 0.00 | 28 | 1019.9 |
| 20260505230528 | 52 | 351 | 6.0 | 8.0 | 0.00 | 0.00 | 0.00 | 28 | 1019.9 |
| 20260505230024 | 52 | 2 | 9.0 | 11.0 | 0.00 | 0.00 | 0.00 | 27 | 1019.8 |
| 20260505225521 | 52 | 5 | 12.0 | 14.0 | 0.00 | 0.00 | 0.00 | 27 | 1019.8 |
| 20260505225017 | 52 | 1 | 5.0 | 7.0 | 0.00 | 0.00 | 0.00 | 28 | 1019.8 |
| 20260505224514 | 52 | 340 | 7.0 | 8.0 | 0.00 | 0.00 | 0.00 | 26 | 1019.9 |
| 20260505224011 | 51 | 40 | 11.0 | 15.0 | 0.00 | 0.00 | 0.00 | 29 | 1019.8 |
| 20260505223508 | 50 | 26 | 8.0 | 8.0 | 0.00 | 0.00 | 0.00 | 29 | 1020.1 |
| 20260505223004 | 51 | 14 | 7.0 | 8.0 | 0.00 | 0.00 | 0.00 | 29 | 1019.8 |
| 20260505222501 | 51 | 10 | 5.0 | 6.0 | 0.00 | 0.00 | 0.00 | 29 | 1020.0 |
| 20260505221956 | 51 | 357 | 11.0 | 13.0 | 0.00 | 0.00 | 0.00 | 29 | 1020.0 |
| 20260505221454 | 52 | 15 | 7.0 | 10.0 | 0.00 | 0.00 | 0.00 | 29 | 1020.0 |
| 20260505220951 | 51 | 11 | 9.0 | 10.0 | 0.00 | 0.00 | 0.00 | 29 | 1019.9 |
| 20260505220448 | 52 | 37 | 13.0 | 17.0 | 0.00 | 0.00 | 0.00 | 29 | 1019.9 |
| 20260505215945 | 52 | 9 | 9.0 | 11.0 | 0.00 | 0.00 | 0.00 | 29 | 1020.0 |
| 20260505215444 | 52 | 353 | 10.0 | 13.0 | 0.00 | 0.00 | 0.00 | 28 | 1020.0 |
| 20260505214941 | 50 | 343 | 8.0 | 10.0 | 0.00 | 0.00 | 0.00 | 28 | 1020.0 |
| 20260505214438 | 52 | 15 | 9.0 | 11.0 | 0.00 | 0.00 | 0.00 | 28 | 1020.0 |
| 20260505213936 | 53 | 354 | 6.0 | 8.0 | 0.00 | 0.00 | 0.00 | 29 | 1020.1 |
| 20260505213433 | 51 | 335 | 6.0 | 8.0 | 0.00 | 0.00 | 0.00 | 29 | 1020.0 |
| 20260505212929 | 52 | 17 | 9.0 | 10.0 | 0.00 | 0.00 | 0.00 | 30 | 1020.1 |
| 20260505212427 | 52 | 13 | 12.0 | 14.0 | 0.00 | 0.00 | 0.00 | 29 | 1020.0 |
| 20260505211923 | 52 | 11 | 11.0 | 14.0 | 0.00 | 0.00 | 0.00 | 29 | 1020.0 |
| 20260505211420 | 50 | 354 | 9.0 | 11.0 | 0.00 | 0.00 | 0.00 | 31 | 1020.0 |
| 20260505210916 | 50 | 336 | 5.0 | 7.0 | 0.00 | 0.00 | 0.00 | 30 | 1020.0 |
| 20260505210414 | 51 | 359 | 7.0 | 9.0 | 0.00 | 0.00 | 0.00 | 31 | 1020.2 |
| 20260505205911 | 49 | 8 | 11.0 | 14.0 | 0.00 | 0.00 | 0.00 | 32 | 1020.1 |
| 20260505205409 | 51 | 9 | 9.0 | 10.0 | 0.00 | 0.00 | 0.00 | 31 | 1020.2 |
| 20260505204905 | 50 | 21 | 11.0 | 14.0 | 0.00 | 0.00 | 0.00 | 31 | 1020.1 |
| 20260505204403 | 50 | 357 | 6.0 | 7.0 | 0.00 | 0.00 | 0.00 | 31 | 1020.2 |
| 20260505203900 | 51 | 9 | 12.0 | 15.0 | 0.00 | 0.00 | 0.00 | 31 | 1020.2 |
| 20260505203356 | 52 | 9 | 11.0 | 13.0 | 0.00 | 0.00 | 0.00 | 29 | 1020.2 |
| 20260505202853 | 53 | 322 | 5.0 | 6.0 | 0.00 | 0.00 | 0.00 | 29 | 1020.2 |
| 20260505202349 | 52 | 342 | 8.0 | 10.0 | 0.00 | 0.00 | 0.00 | 29 | 1020.2 |
| 20260505201846 | 53 | 333 | 5.0 | 7.0 | 0.00 | 0.00 | 0.00 | 29 | 1020.2 |
| 20260505201343 | 51 | 19 | 12.0 | 15.0 | 0.00 | 0.00 | 0.00 | 29 | 1020.3 |
| 20260505200841 | 49 | 359 | 10.0 | 15.0 | 0.00 | 0.00 | 0.00 | 31 | 1020.3 |
| 20260505200338 | 52 | 8 | 9.0 | 13.0 | 0.00 | 0.00 | 0.00 | 30 | 1020.4 |
| 20260505195833 | 51 | 27 | 4.0 | 5.0 | 0.00 | 0.00 | 0.00 | 31 | 1020.4 |
| 20260505195331 | 51 | 15 | 9.0 | 10.0 | 0.00 | 0.00 | 0.00 | 30 | 1020.3 |
| 20260505194828 | 50 | 26 | 7.0 | 8.0 | 0.00 | 0.00 | 0.00 | 32 | 1020.4 |
| 20260505194325 | 52 | 4 | 9.0 | 13.0 | 0.00 | 0.00 | 0.00 | 32 | 1020.4 |
| 20260505193820 | 51 | 341 | 3.0 | 3.0 | 0.00 | 0.00 | 0.00 | 31 | 1020.4 |
| 20260505193318 | 50 | 357 | 11.0 | 15.0 | 0.00 | 0.00 | 0.00 | 32 | 1020.4 |
| 20260505192816 | 51 | 336 | 7.0 | 10.0 | 0.00 | 0.00 | 0.00 | 31 | 1020.6 |
| 20260505192314 | 50 | 8 | 10.0 | 11.0 | 0.00 | 0.00 | 0.00 | 33 | 1020.4 |
| 20260505191812 | 50 | 5 | 10.0 | 14.0 | 0.00 | 0.00 | 0.00 | 34 | 1020.4 |
| 20260505191309 | 51 | 320 | 5.0 | 7.0 | 0.00 | 0.00 | 0.00 | 31 | 1020.4 |
| 20260505190806 | 50 | 320 | 9.0 | 15.0 | 0.00 | 0.00 | 0.00 | 35 | 1020.6 |
| 20260505190301 | 50 | 13 | 6.0 | 8.0 | 0.00 | 0.00 | 0.00 | 34 | 1020.4 |
| 20260505185757 | 50 | 12 | 9.0 | 10.0 | 0.00 | 0.00 | 0.00 | 32 | 1020.6 |
| 20260505185254 | 50 | 22 | 7.0 | 9.0 | 0.00 | 0.00 | 0.00 | 33 | 1020.7 |
| 20260505184750 | 49 | 3 | 8.0 | 9.0 | 0.00 | 0.00 | 0.00 | 32 | 1020.7 |
| 20260505184248 | 49 | 17 | 12.0 | 15.0 | 0.00 | 0.00 | 0.00 | 33 | 1020.7 |
| 20260505183744 | 51 | 359 | 10.0 | 13.0 | 0.00 | 0.00 | 0.00 | 31 | 1020.6 |
| 20260505183241 | 50 | 1 | 11.0 | 17.0 | 0.00 | 0.00 | 0.00 | 33 | 1020.7 |
| 20260505182738 | 48 | 5 | 14.0 | 17.0 | 0.00 | 0.00 | 0.00 | 35 | 1020.7 |
| 20260505182235 | 50 | 22 | 9.0 | 9.0 | 0.00 | 0.00 | 0.00 | 35 | 1020.8 |
| 20260505181732 | 48 | 333 | 7.0 | 8.0 | 0.00 | 0.00 | 0.00 | 35 | 1020.8 |
| 20260505181229 | 48 | 359 | 9.0 | 13.0 | 0.00 | 0.00 | 0.00 | 35 | 1020.9 |
| 20260505180725 | 48 | 14 | 12.0 | 16.0 | 0.00 | 0.00 | 0.00 | 35 | 1020.9 |
| 20260505180222 | 48 | 21 | 8.0 | 10.0 | 0.00 | 0.00 | 0.00 | 39 | 1020.8 |
| 20260505175718 | 48 | 14 | 8.0 | 10.0 | 0.00 | 0.00 | 0.00 | 40 | 1020.7 |
| 20260505175215 | 48 | 344 | 4.0 | 6.0 | 0.00 | 0.00 | 0.00 | 40 | 1020.9 |
| 20260505174711 | 49 | 20 | 6.0 | 8.0 | 0.00 | 0.00 | 0.00 | 39 | 1020.8 |
| 20260505174208 | 49 | 24 | 10.0 | 11.0 | 0.00 | 0.00 | 0.00 | 40 | 1020.7 |
| 20260505173704 | 49 | 357 | 8.0 | 9.0 | 0.00 | 0.00 | 0.00 | 41 | 1020.8 |
| 20260505173201 | 49 | 10 | 5.0 | 6.0 | 0.00 | 0.00 | 0.00 | 43 | 1021.0 |
| 20260505172658 | 48 | 29 | 11.0 | 11.0 | 0.00 | 0.00 | 0.00 | 42 | 1021.0 |
| 20260505172155 | 49 | 30 | 7.0 | 8.0 | 0.00 | 0.00 | 0.00 | 41 | 1020.7 |
| 20260505171654 | 47 | 6 | 5.0 | 6.0 | 0.00 | 0.00 | 0.00 | 42 | 1020.9 |
| 20260505171152 | 48 | 24 | 6.0 | 7.0 | 0.00 | 0.00 | 0.00 | 42 | 1021.0 |
| 20260505170649 | 48 | 2 | 8.0 | 8.0 | 0.00 | 0.00 | 0.00 | 43 | 1020.9 |
| 20260505170146 | 48 | 24 | 10.0 | 11.0 | 0.00 | 0.00 | 0.00 | 44 | 1020.9 |
| 20260505165646 | 47 | 31 | 7.0 | 8.0 | 0.00 | 0.00 | 0.00 | 44 | 1021.0 |
| 20260505165143 | 47 | 8 | 8.0 | 9.0 | 0.00 | 0.00 | 0.00 | 44 | 1021.2 |
| 20260505164638 | 46 | 0 | 9.0 | 11.0 | 0.00 | 0.00 | 0.00 | 48 | 1021.1 |
| 20260505164136 | 46 | 19 | 6.0 | 7.0 | 0.00 | 0.00 | 0.00 | 45 | 1021.3 |
| 20260505163634 | 47 | 350 | 9.0 | 11.0 | 0.00 | 0.00 | 0.00 | 46 | 1021.1 |
| 20260505163132 | 46 | 332 | 5.0 | 7.0 | 0.00 | 0.00 | 0.00 | 45 | 1021.0 |
| 20260505162629 | 47 | 27 | 14.0 | 15.0 | 0.00 | 0.00 | 0.00 | 46 | 1020.8 |
| 20260505162127 | 47 | 11 | 6.0 | 7.0 | 0.00 | 0.00 | 0.00 | 47 | 1021.0 |
| 20260505161624 | 46 | 354 | 6.0 | 7.0 | 0.00 | 0.00 | 0.00 | 47 | 1021.0 |
| 20260505161121 | 45 | 351 | 7.0 | 9.0 | 0.00 | 0.00 | 0.00 | 48 | 1021.0 |
| 20260505160618 | 46 | 315 | 3.0 | 5.0 | 0.00 | 0.00 | 0.00 | 49 | 1021.0 |
| 20260505160116 | 46 | 3 | 4.0 | 5.0 | 0.00 | 0.00 | 0.00 | 48 | 1021.0 |
| 20260505153055 | 44 | 4 | 7.0 | 8.0 | 0.00 | 0.00 | 0.00 | 54 | 1021.4 |
| 20260505152551 | 44 | 341 | 5.0 | 5.0 | 0.00 | 0.00 | 0.00 | 55 | 1021.2 |
| 20260505152047 | 44 | 21 | 6.0 | 7.0 | 0.00 | 0.00 | 0.00 | 55 | 1021.2 |
| 20260505151542 | 44 | 17 | 5.0 | 6.0 | 0.00 | 0.00 | 0.00 | 55 | 1021.3 |
| 20260505151040 | 44 | 328 | 2.0 | 2.0 | 0.00 | 0.00 | 0.00 | 56 | 1021.3 |
| 20260505150536 | 44 | 293 | 4.0 | 7.0 | 0.00 | 0.00 | 0.00 | 57 | 1021.3 |
| 20260505140502 | 41 | 349 | 2.0 | 2.0 | 0.00 | 0.00 | 0.00 | 63 | 1021.2 |
| 20260505124915 | 39 | 350 | 1.0 | 1.0 | 0.00 | 0.00 | 0.00 | 64 | 1020.8 |
| 20260505124412 | 39 | 352 | 2.0 | 2.0 | 0.00 | 0.00 | 0.00 | 63 | 1020.9 |
| 20260505123908 | 39 | 5 | 3.0 | 3.0 | 0.00 | 0.00 | 0.00 | 62 | 1020.6 |
| 20260505123405 | 39 | 7 | 3.0 | 3.0 | 0.00 | 0.00 | 0.00 | 61 | 1020.7 |
| 20260505122900 | 39 | 4 | 3.0 | 3.0 | 0.00 | 0.00 | 0.00 | 61 | 1020.6 |
| 20260505122358 | 39 | 18 | 1.0 | 2.0 | 0.00 | 0.00 | 0.00 | 61 | 1020.8 |
| 20260505121854 | 39 | 16 | 2.0 | 2.0 | 0.00 | 0.00 | 0.00 | 62 | 1020.6 |
| 20260505121351 | 39 | 24 | 3.0 | 3.0 | 0.00 | 0.00 | 0.00 | 62 | 1020.7 |
| 20260505120847 | 39 | 21 | 2.0 | 2.0 | 0.00 | 0.00 | 0.00 | 62 | 1020.6 |
| 20260505120344 | 39 | 14 | 2.0 | 2.0 | 0.00 | 0.00 | 0.00 | 62 | 1020.4 |
| 20260505115842 | 39 | 9 | 3.0 | 5.0 | 0.00 | 0.00 | 0.00 | 61 | 1020.4 |
| 20260505115340 | 39 | 349 | 2.0 | 2.0 | 0.00 | 0.00 | 0.00 | 61 | 1020.4 |
| 20260505114838 | 39 | 11 | 3.0 | 5.0 | 0.00 | 0.00 | 0.00 | 60 | 1020.2 |
| 20260505114334 | 39 | 9 | 3.0 | 3.0 | 0.00 | 0.00 | 0.00 | 59 | 1020.4 |
| 20260505113830 | 40 | 6 | 5.0 | 6.0 | 0.00 | 0.00 | 0.00 | 59 | 1020.3 |
| 20260505113327 | 40 | 10 | 3.0 | 3.0 | 0.00 | 0.00 | 0.00 | 58 | 1020.3 |
| 20260505112823 | 40 | 12 | 4.0 | 5.0 | 0.00 | 0.00 | 0.00 | 57 | 1020.2 |
| 20260505112320 | 40 | 18 | 2.0 | 2.0 | 0.00 | 0.00 | 0.00 | 57 | 1020.3 |
| 20260505111815 | 41 | 18 | 2.0 | 2.0 | 0.00 | 0.00 | 0.00 | 56 | 1020.3 |
| 20260505111311 | 41 | 23 | 4.0 | 5.0 | 0.00 | 0.00 | 0.00 | 56 | 1020.2 |
| 20260505110807 | 41 | 3 | 3.0 | 3.0 | 0.00 | 0.00 | 0.00 | 57 | 1020.3 |
| 20260505110306 | 41 | 20 | 2.0 | 3.0 | 0.00 | 0.00 | 0.00 | 57 | 1020.2 |